Location: Brachstadt
(48.6975°N, 10.6755°E)
Time: 15:43:50
(UTC+00:00)

CREW DRAGON DEMO-1 DEB - Pass Details

Date: 18 September 2020
Orbit: 362 x 364 km, 51.6° (Epoch: 24 October)

Event Time Altitude Azimuth Distance (km) Brightness Sun altitude
Rises 18:27:19 0° 276° (W) 2,197 8.7 -11.3°
Reaches altitude 10° 18:29:24 10° 283° (WNW) 1,351 7.2 -11.6°
Maximum altitude 18:32:19 45° 358° (N) 510 3.6 -12.1°
Enters shadow 18:34:21 17° 67° (ENE) 1,013 4.5 -12.4°
